Volver al catálogo

FENGYUN 1C DEB

ActivoSSO
NORAD 36986·DEBRIS·🇨🇳 China

Lanzado May 10, 1999 desde Taiyuan Satellite Launch Center

Loading…

Próximos Pases (próximas 24 horas)

TLE

ActualizadoSource: Space-Track

Época: Sep 12, 2026, 16:22 UTC

1 36986U 99025EBS 26255.68234757  .00002160  00000-0  10716-2 0  9995
2 36986  99.1334 333.5018 0085848 189.0604 170.9024 14.16367449856206

Sigue FENGYUN 1C DEB en tiempo real con AllMySat

Download on the App Store